Regional Weather Roundup
Issued by NWS

Home | Current Version | Previous Version | Graphics & Text | Print | Product List | Glossary On
Versions: 1 2 3 4 5 6 7 8 9 10 11 12 13 14 15 16 17 18 19 20 21 22 23 24 25 26 27 28 29 30 31 32 33 34 35 36 37 38 39 40 41 42 43 44 45 46 47 48 49 50
000
ASUS43 KFSD 201702
RWRSD

WEATHER ROUNDUP FOR SOUTH DAKOTA
NATIONAL WEATHER SERVICE SIOUX FALLS SD
1200 PM CDT MON APR 20 2015

NOTE: "FAIR" INDICATES FEW OR NO CLOUDS BELOW 12,000 FEET WITH NO
SIGNIFICANT WEATHER AND/OR OBSTRUCTIONS TO VISIBILITY.


SDZ001>005-009-010-012>017-201800-
NORTHWEST AND NORTH CENTRAL SOUTH DAKOTA

CITY           SKY/WX    TMP DP  RH WIND       PRES   REMARKS
BUFFALO          N/A     46  19  34 NW31G37   29.83F
FAITH            N/A     49  15  25 NW26G37   29.86F
MOBRIDGE         N/A     50   5  16 NW30G44   29.77F
$$

SDZ012>016-024>037-041>051-057-063-072>074-201800-
SOUTHWEST AND SOUTH CENTRAL SOUTH DAKOTA

CITY           SKY/WX    TMP DP  RH WIND       PRES   REMARKS
RAPID CTY ARPT CLOUDY    48  20  32 NW26G36   29.91F
PIERRE         SUNNY     50  17  27 NW29G37   29.83F
CUSTER         PTSUNNY   38  15  39 NW15G23   29.90F
ELLSWORTH AFB  CLOUDY    47  20  33 NW26      29.90F
PHILIP         PTSUNNY   51  17  26 N22G33    29.88F
PINE RIDGE     CLOUDY    47  18  31 NW16G24   29.93F
WINNER         FAIR      52  16  24 NW26G40   29.85F
$$

SDZ004>011-016>023-039-040-201800-
NORTHEAST SOUTH DAKOTA

CITY           SKY/WX    TMP DP  RH WIND       PRES   REMARKS
ABERDEEN       CLOUDY    43  26  51 NW28G35   29.74F
WATERTOWN      CLOUDY    40  26  57 NW21G33   29.66F
BROOKINGS      CLOUDY    43  25  49 NW28G33   29.68S
SISSETON         N/A     37  34  89 N21       29.65F
$$

SDZ017-020-022-023-036>040-048>070-201800-
SOUTHEAST SOUTH DAKOTA

CITY           SKY/WX    TMP DP  RH WIND       PRES   REMARKS
SIOUX FALLS    MOSUNNY   48  17  29 NW30G41   29.70F
HURON          SUNNY     48  15  26 NW31G44   29.74F
MITCHELL       SUNNY     51   9  18 NW38G46   29.76F
YANKTON        SUNNY    N/A N/A N/A W29G41    29.76F
$$

ABBREVIATIONS USED IN REMARKS
   TC - TEMPERATURE IN CELSIUS
  WCI - WIND CHILL INDEX
   HX - HEAT INDEX
  VSB - VISIBILITY




USA.gov is the U.S. government's official web portal to all federal, state and local government web resources and services.